Guanajuato International Airport
MMLO : now visible

Airfield :











YOU CAN JOIN US ON...

 
LOGIN :

Register | Disclaimer

   EN    FR    IT 

 









Legend :    VFR   Marginal VFR   IFR   Intensive IFR   Very Intensive IFR
Visi :
Ceiling :
>= 8 km
>= 3000ft
5 to 8 km
1000 to 3000 ft
1500m to 5 km
500 to 1000 ft
800 to 1500m
200 to 500 ft
< 800m
< 200 ft
Symbols :   Thunderstorms  Fog  Heavy snow  Heavy precipitations  Wind > 20 kt






- Airport Elevation : 5956 ft
- IATA code : BJX


MMLO - Guanajuato International

CURRENT METAR :
  • 080544Z 32004KT 8SM SKC 20/00 A3032 RMK SLP098 52014 960

EXPIRED METARs :
  • 080442Z 00000KT 8SM SCT080 22/00 A3032 RMK 8/030
  • 080342Z 20004KT 8SM BKN080 24/00 A3031 RMK 8/050

TAF TAF MMLO
Valid from the 08 at 06:00 until the 09 at 06:00 UTC


080425Z 0806/0906 00000KT P6SM SCT080
FM081800 22010KT P6SM SCT200
BECMG 0902/0903 00000KT



MET'MAP, your aeronautical weather chart ! - Copyright ORBIFLY December 2007 - Disclaimer

ORBIFLY MET'MAP TEAM :

Programming & Development : Alexandra Zaïnal
Concept & original design : Baudouin d'Aumeries
Assistance for programming : Marc-Olivier Méhu
Technical & hardware support : Manuel Goepfert

Contact : metmap@orbifly.com




SOURCES & CREDITS :

   NOAA       Earth
Advisory